Вернуться в каталог

STARLINK-36337

АктивенСвязьVLEO
NORAD 68716·PAYLOAD·🇺🇸 United States

Запущен Apr 14, 2026 с Cape Canaveral Space Force Station

Loading…

Ближайшие Пролёты (ближайшие 24 часа)

TLE

СвежийSource: CelesTrak SupGP

Эпоха: Sep 15, 2026, 04:00 UTC

1 68716C 26081T   26258.16715278 -.00052641  00000+0 -15553-2 0  2583
2 68716  53.1586 230.6139 0001447  85.2338 159.4246 15.34417042    10

Отслеживайте STARLINK-36337 в реальном времени с AllMySat

Download on the App Store